User: anonymous   Login
Location: Unspecified
(0.0000°N, 0.0000°E)
Time: 19:01:36
(UTC+01:00)
Language:

YAOGAN 3 - Orbit

View from above orbital plane
View from above orbital plane
View from above satellite
View from above satellite

Ground track
Ground track

The orbit data is extracted from the following two-line orbital elements,

1 32289U 07055A   14354.18104804  .00001435  00000-0  18729-3 0  8806
2 32289 097.9534 344.8042 0001388 063.7187 296.4167 14.82071550384070
Epoch (UTC): 20 December 2014 04:20:42
Eccentricity: 0.0001388
inclination: 97.9534°
perigee height: 622 km
apogee height: 624 km
right ascension of ascending node: 344.8042°
argument of perigee: 63.7187°
revolutions per day: 14.82071550
mean anomaly at epoch: 296.4167°
orbit number at epoch: 38407

The dashed part of the orbit path shows where the satellite is in the earth's shadow,  

DLR